• In Uzbekistan
  • List of Countries
  • For 7 days
  • Water Temperature
  • Satellite Maps
  • Weather Map
  • Weather Widgets
  • user-avatar
    Login

    Hourly Weather Rawson

    Today, 30 May, Tuesday

    Time Temperature Precipitation Wind Pressure Humidity
    00:00 +5°C° 0 mm 6 mps 767 mmHg 88%
    01:00 +5°C° 0 mm 6 mps 767 mmHg 88%
    02:00 +5°C° 0 mm 7 mps 767 mmHg 89%
    03:00 +4°C° 0 mm 7 mps 766 mmHg 85%
    04:00 +4°C° 0 mm 7 mps 766 mmHg 81%
    05:00 +4°C° 0 mm 7 mps 766 mmHg 77%
    06:00 +4°C° 0 mm 7 mps 765 mmHg 74%
    07:00 +4°C° 0 mm 7 mps 765 mmHg 71%
    08:00 +4°C° 0 mm 7 mps 765 mmHg 68%
    09:00 +6°C° 0 mm 8 mps 765 mmHg 63%
    10:00 +7°C° 0 mm 8 mps 764 mmHg 58%
    11:00 +10°C° 0 mm 8 mps 764 mmHg 53%
    12:00 +11°C° 0 mm 8 mps 764 mmHg 49%
    13:00 +12°C° 0 mm 8 mps 763 mmHg 46%
    14:00 +13°C° 0 mm 8 mps 763 mmHg 43%
    15:00 +12°C° 0 mm 7 mps 763 mmHg 46%
    16:00 +11°C° 0 mm 6 mps 762 mmHg 48%
    17:00 +10°C° 0 mm 6 mps 762 mmHg 51%
    18:00 +9°C° 0 mm 5 mps 762 mmHg 51%
    19:00 +9°C° 0 mm 5 mps 762 mmHg 51%
    20:00 +8°C° 0 mm 4 mps 762 mmHg 51%
    21:00 +8°C° 0 mm 4 mps 762 mmHg 52%
    22:00 +8°C° 0 mm 4 mps 762 mmHg 52%
    23:00 +7°C° 0 mm 4 mps 762 mmHg 52%

    Tomorrow, 31 May, Wednesday

    Time Temperature Precipitation Wind Pressure Humidity
    00:00 +8°C° 0 mm 3 mps 762 mmHg 53%
    01:00 +8°C° 0 mm 3 mps 761 mmHg 53%
    02:00 +7°C° 0 mm 3 mps 761 mmHg 54%
    03:00 +7°C° 0 mm 3 mps 761 mmHg 53%
    04:00 +8°C° 0 mm 2 mps 761 mmHg 52%
    05:00 +8°C° 0 mm 2 mps 761 mmHg 51%
    06:00 +7°C° 0 mm 2 mps 761 mmHg 52%
    07:00 +7°C° 0 mm 3 mps 761 mmHg 54%
    08:00 +7°C° 0 mm 3 mps 761 mmHg 55%
    09:00 +9°C° 0 mm 3 mps 761 mmHg 49%
    10:00 +11°C° 0 mm 3 mps 761 mmHg 43%
    11:00 +13°C° 0 mm 3 mps 761 mmHg 37%
    12:00 +14°C° 0 mm 3 mps 761 mmHg 37%
    13:00 +16°C° 0 mm 3 mps 760 mmHg 36%
    14:00 +17°C° 0 mm 3 mps 759 mmHg 36%
    15:00 +14°C° 0 mm 3 mps 759 mmHg 41%
    16:00 +13°C° 0 mm 3 mps 759 mmHg 47%
    17:00 +13°C° 0 mm 2 mps 759 mmHg 52%
    18:00 +11°C° 0 mm 3 mps 759 mmHg 54%
    19:00 +11°C° 0 mm 3 mps 760 mmHg 56%
    20:00 +11°C° 0 mm 3 mps 760 mmHg 57%
    21:00 +11°C° 0 mm 3 mps 760 mmHg 57%
    22:00 +11°C° 0 mm 4 mps 760 mmHg 58%
    23:00 +11°C° 0 mm 4 mps 760 mmHg 58%

    Day after tomorrow, 1 June, Thursday

    Time Temperature Precipitation Wind Pressure Humidity
    00:00 +10°C° 0 mm 5 mps 760 mmHg 61%
    01:00 +10°C° 0 mm 6 mps 760 mmHg 64%
    02:00 +9°C° 0 mm 7 mps 760 mmHg 66%
    03:00 +9°C° 0 mm 7 mps 760 mmHg 69%
    04:00 +8°C° 0 mm 7 mps 760 mmHg 71%
    05:00 +6°C° 0 mm 7 mps 760 mmHg 73%
    06:00 +6°C° 0 mm 7 mps 761 mmHg 74%
    07:00 +5°C° 0 mm 7 mps 761 mmHg 75%
    08:00 +5°C° 0 mm 7 mps 761 mmHg 75%
    09:00 +6°C° 0 mm 7 mps 761 mmHg 67%
    10:00 +8°C° 0 mm 7 mps 762 mmHg 59%
    11:00 +10°C° 0 mm 7 mps 762 mmHg 51%
    12:00 +10°C° 0 mm 7 mps 762 mmHg 48%
    13:00 +11°C° 0 mm 7 mps 761 mmHg 45%
    14:00 +13°C° 0 mm 6 mps 761 mmHg 42%
    15:00 +11°C° 0 mm 6 mps 761 mmHg 45%
    16:00 +10°C° 0 mm 5 mps 761 mmHg 49%
    17:00 +10°C° 0 mm 4 mps 761 mmHg 52%
    18:00 +8°C° 0 mm 4 mps 761 mmHg 54%
    19:00 +8°C° 0 mm 4 mps 761 mmHg 56%
    20:00 +7°C° 0 mm 4 mps 761 mmHg 57%
    21:00 +7°C° 0 mm 4 mps 760 mmHg 56%
    22:00 +7°C° 0 mm 4 mps 760 mmHg 56%
    23:00 +7°C° 0 mm 5 mps 760 mmHg 55%

    2 June, Friday

    Time Temperature Precipitation Wind Pressure Humidity
    00:00 +7°C° 0 mm 5 mps 760 mmHg 55%
    01:00 +6°C° 0 mm 5 mps 759 mmHg 55%
    02:00 +5°C° 0 mm 6 mps 759 mmHg 55%
    03:00 +6°C° 0 mm 5 mps 758 mmHg 55%
    04:00 +6°C° 0 mm 5 mps 758 mmHg 56%
    05:00 +5°C° 0 mm 4 mps 757 mmHg 57%
    06:00 +5°C° 0 mm 5 mps 757 mmHg 56%
    07:00 +5°C° 0 mm 5 mps 757 mmHg 56%
    08:00 +5°C° 0 mm 5 mps 756 mmHg 56%
    09:00 +7°C° 0 mm 5 mps 756 mmHg 50%
    10:00 +9°C° 0 mm 5 mps 756 mmHg 44%
    11:00 +12°C° 0 mm 5 mps 756 mmHg 38%
    12:00 +12°C° 0 mm 4 mps 756 mmHg 41%
    13:00 +12°C° 0 mm 4 mps 756 mmHg 43%
    14:00 +13°C° 0 mm 4 mps 755 mmHg 45%
    15:00 +12°C° 0.1 mm 3 mps 755 mmHg 50%
    16:00 +12°C° 0.1 mm 2 mps 755 mmHg 56%
    17:00 +10°C° 0.1 mm 1 mps 755 mmHg 61%
    18:00 +9°C° 0 mm 2 mps 755 mmHg 63%
    19:00 +8°C° 0 mm 2 mps 755 mmHg 65%
    20:00 +8°C° 0 mm 3 mps 755 mmHg 66%
    21:00 +8°C° 0 mm 3 mps 755 mmHg 66%
    22:00 +8°C° 0 mm 3 mps 755 mmHg 65%
    23:00 +6°C° 0 mm 4 mps 755 mmHg 65%

    3 June, Saturday

    Time Temperature Precipitation Wind Pressure Humidity
    00:00 +6°C° 0 mm 4 mps 755 mmHg 66%
    01:00 +6°C° 0 mm 5 mps 755 mmHg 66%
    02:00 +6°C° 0 mm 5 mps 755 mmHg 67%
    03:00 +4°C° 0 mm 6 mps 755 mmHg 66%
    04:00 +4°C° 0 mm 6 mps 755 mmHg 66%
    05:00 +4°C° 0 mm 6 mps 755 mmHg 65%
    06:00 +4°C° 0 mm 6 mps 755 mmHg 64%
    07:00 +3°C° 0 mm 5 mps 755 mmHg 63%
    08:00 +3°C° 0 mm 5 mps 755 mmHg 62%
    09:00 +6°C° 0 mm 5 mps 755 mmHg 55%
    10:00 +8°C° 0 mm 5 mps 755 mmHg 48%
    11:00 +10°C° 0 mm 6 mps 755 mmHg 41%
    12:00 +11°C° 0 mm 6 mps 754 mmHg 37%
    13:00 +12°C° 0 mm 7 mps 754 mmHg 33%
    14:00 +14°C° 0 mm 7 mps 753 mmHg 29%
    15:00 +13°C° 0 mm 6 mps 753 mmHg 33%
    16:00 +10°C° 0 mm 5 mps 753 mmHg 37%
    17:00 +10°C° 0 mm 4 mps 752 mmHg 40%
    18:00 +9°C° 0.1 mm 5 mps 753 mmHg 45%
    19:00 +8°C° 0.1 mm 5 mps 753 mmHg 50%
    20:00 +8°C° 0.1 mm 6 mps 753 mmHg 55%
    21:00 +8°C° 0.1 mm 7 mps 753 mmHg 55%
    22:00 +6°C° 0.1 mm 9 mps 753 mmHg 55%
    23:00 +6°C° 0.1 mm 10 mps 753 mmHg 56%

    4 June, Sunday

    Time Temperature Precipitation Wind Pressure Humidity
    00:00 +4°C° 0 mm 11 mps 753 mmHg 55%
    01:00 +4°C° 0 mm 12 mps 753 mmHg 54%
    02:00 +4°C° 0 mm 13 mps 753 mmHg 54%
    03:00 +3°C° 0 mm 12 mps 754 mmHg 54%
    04:00 +3°C° 0 mm 11 mps 755 mmHg 55%
    05:00 +3°C° 0 mm 10 mps 755 mmHg 56%
    06:00 +2°C° 0 mm 10 mps 756 mmHg 57%
    07:00 +2°C° 0 mm 9 mps 757 mmHg 59%
    08:00 +2°C° 0 mm 8 mps 757 mmHg 61%
    09:00 +4°C° 0 mm 8 mps 758 mmHg 55%
    10:00 +6°C° 0 mm 8 mps 758 mmHg 50%
    11:00 +7°C° 0 mm 9 mps 759 mmHg 45%
    12:00 +9°C° 0 mm 8 mps 758 mmHg 44%
    13:00 +9°C° 0 mm 8 mps 758 mmHg 43%
    14:00 +10°C° 0 mm 8 mps 758 mmHg 41%
    15:00 +9°C° 0 mm 7 mps 758 mmHg 45%
    16:00 +8°C° 0 mm 6 mps 758 mmHg 48%
    17:00 +7°C° 0 mm 6 mps 758 mmHg 52%
    18:00 +7°C° 0 mm 5 mps 758 mmHg 53%
    19:00 +6°C° 0 mm 5 mps 758 mmHg 54%
    20:00 +6°C° 0 mm 5 mps 758 mmHg 55%
    21:00 +6°C° 0 mm 5 mps 758 mmHg 55%
    22:00 +6°C° 0 mm 5 mps 758 mmHg 55%
    23:00 +4°C° 0 mm 6 mps 758 mmHg 55%
    Show more